Location: Emblem
(62.4273°N, 6.4710°E)
Time: 06:11:40
(UTC+01:00)

Transit 4A - Visible Passes

Search period start: 30 January 2023 00:00
Search period end: 09 February 2023 00:00
Orbit: 871 x 973 km, 66.8° (Epoch: 29 January)

Date Brightness Start Highest point End Pass type
(mag) Time Alt. Az. Time Alt. Az. Time Alt. Az.
30 Jan 9.3 18:13:58 10° SE 18:17:03 15° ESE 18:17:54 14° E visible
30 Jan 8.1 19:56:34 10° SSW 20:01:27 45° SSE 20:01:27 45° SSE visible
30 Jan 9.3 21:42:25 10° WSW 21:45:00 28° WSW 21:45:00 28° WSW visible
31 Jan 9.1 18:21:52 10° SSE 18:25:53 20° ESE 18:27:32 17° E visible
31 Jan 7.8 20:05:31 10° SSW 20:11:04 57° SE 20:11:04 57° SE visible
31 Jan 9.2 21:51:43 10° WSW 21:54:37 30° W 21:54:37 30° W visible
01 Feb 8.8 18:30:10 10° SSE 18:34:47 25° ESE 18:37:04 20° E visible
01 Feb 7.6 20:14:33 10° SW 20:20:21 70° SE 20:20:36 69° ESE visible
01 Feb 9.2 22:01:05 10° W 22:04:08 32° W 22:04:08 32° W visible
02 Feb 8.5 18:38:41 10° S 18:43:45 32° ESE 18:46:31 21° ENE visible
02 Feb 7.6 20:23:42 10° SW 20:29:32 83° SE 20:30:03 74° E visible
02 Feb 9.2 22:10:27 10° W 22:13:34 32° WNW 22:13:34 32° WNW visible
03 Feb 8.3 18:47:23 10° SSW 18:52:45 40° SE 18:55:53 23° ENE visible
03 Feb 7.7 20:32:55 10° WSW 20:38:46 86° NNW 20:39:25 72° NE visible
03 Feb 9.3 22:19:50 10° W 22:22:56 31° WNW 22:22:56 31° WNW visible
04 Feb 8.0 18:56:14 10° SSW 19:01:49 50° SE 19:05:12 23° ENE visible
04 Feb 7.8 20:42:12 10° WSW 20:48:03 76° NNW 20:48:44 67° NNE visible
04 Feb 9.4 22:29:13 10° W 22:32:14 31° WNW 22:32:14 31° WNW visible
05 Feb 7.8 19:05:12 10° SW 19:10:56 62° SE 19:14:27 24° ENE visible
05 Feb 7.9 20:51:32 10° WSW 20:57:22 68° NNW 20:57:59 63° NNE visible
05 Feb 9.4 22:38:34 10° WNW 22:41:29 30° WNW 22:41:29 30° WNW visible
06 Feb 8.9 17:29:40 10° S 17:34:28 27° ESE 17:39:18 10° ENE visible
06 Feb 7.7 19:14:18 10° SW 19:20:06 74° SE 19:23:40 25° ENE visible
06 Feb 8.0 21:00:53 10° W 21:06:42 63° NNW 21:07:11 60° N visible
06 Feb 9.5 22:47:54 10° WNW 22:50:42 28° WNW 22:50:42 28° WNW visible
07 Feb 8.6 17:38:15 10° S 17:43:26 35° ESE 17:48:40 10° ENE visible
07 Feb 7.7 19:23:28 10° SW 19:29:18 87° SE 19:32:50 26° ENE visible
07 Feb 8.1 21:10:16 10° W 21:16:04 59° N 21:16:21 58° N visible
07 Feb 9.5 22:57:14 10° WNW 22:59:51 27° WNW 22:59:51 27° WNW visible
08 Feb 8.3 17:47:00 10° SSW 17:52:27 43° SE 17:57:59 10° ENE visible
08 Feb 7.8 19:32:42 10° WSW 19:38:34 82° NNW 19:41:58 27° ENE visible
08 Feb 8.2 21:19:39 10° W 21:25:26 57° N 21:25:29 57° N visible
08 Feb 9.6 23:06:31 10° WNW 23:08:59 26° WNW 23:08:59 26° WNW visible
